Time,TemperatureF,DewpointF,PressureIn,WindDirection,WindDirectionDegrees,WindSpeedMPH,WindSpeedGustMPH,Humidity,HourlyPrecipIn,Conditions,Clouds,dailyrainin,SoftwareType,DateUTC
2014-01-11 00:01:00,41.6,41.1,30.14,WNW,290,0.0,0.0,98,0.07,,RA,0.00,VWS V14.01,2014-01-11 05:01:00,
2014-01-11 00:06:00,41.6,41.1,30.13,WNW,290,0.0,0.0,98,0.07,,RA,0.00,VWS V14.01,2014-01-11 05:06:00,
2014-01-11 00:11:00,41.6,41.1,30.13,WNW,290,0.0,0.0,98,0.08,,RA,0.01,VWS V14.01,2014-01-11 05:11:00,
2014-01-11 00:16:00,41.5,41.0,30.13,SSW,204,0.0,0.0,98,0.07,,RA,0.01,VWS V14.01,2014-01-11 05:16:00,
2014-01-11 00:21:00,41.4,40.9,30.12,SSW,204,0.0,0.0,98,0.07,,RA,0.01,VWS V14.01,2014-01-11 05:21:00,
2014-01-11 00:27:00,41.5,41.0,30.12,SSW,204,0.0,0.0,98,0.06,,RA,0.01,VWS V14.01,2014-01-11 05:27:00,
2014-01-11 00:31:00,41.5,41.0,30.12,SSW,204,0.0,0.0,98,0.06,,RA,0.01,VWS V14.01,2014-01-11 05:31:00,
2014-01-11 00:36:00,41.5,41.0,30.12,SSW,204,0.0,0.0,98,0.06,,RA,0.02,VWS V14.01,2014-01-11 05:36:00,
2014-01-11 00:41:00,41.5,41.0,30.11,SSW,204,0.0,0.0,98,0.05,,RA,0.02,VWS V14.01,2014-01-11 05:41:00,
2014-01-11 00:46:00,41.4,40.9,30.11,SW,228,0.0,0.0,98,0.02,,RA,0.02,VWS V14.01,2014-01-11 05:46:00,
2014-01-11 00:51:00,41.5,41.0,30.09,East,90,0.0,0.0,98,0.02,,RA,0.02,VWS V14.01,2014-01-11 05:51:00,
2014-01-11 00:56:00,41.4,40.9,30.09,East,85,2.0,0.0,98,0.02,,RA,0.02,VWS V14.01,2014-01-11 05:56:00,
2014-01-11 01:01:00,41.4,40.9,30.09,SSE,148,0.0,0.0,98,0.02,,-RA,0.02,VWS V14.01,2014-01-11 06:01:00,
2014-01-11 01:07:00,41.5,41.0,30.09,WSW,243,0.0,0.0,98,0.02,,-RA,0.02,VWS V14.01,2014-01-11 06:07:00,
2014-01-11 01:12:00,41.5,41.0,30.09,WSW,243,0.0,0.0,98,0.01,,-RA,0.02,VWS V14.01,2014-01-11 06:12:00,
2014-01-11 01:17:00,41.5,41.0,30.09,WSW,243,0.0,0.0,98,0.02,,-RA,0.03,VWS V14.01,2014-01-11 06:17:00,
2014-01-11 01:22:00,41.5,41.0,30.09,WSW,243,0.0,0.0,98,0.02,,OVC009,0.03,VWS V14.01,2014-01-11 06:22:00,
2014-01-11 01:27:00,41.5,41.0,30.09,WSW,243,0.0,0.0,98,0.03,,OVC009,0.04,VWS V14.01,2014-01-11 06:27:00,
2014-01-11 01:32:00,41.5,41.0,30.09,WSW,246,1.0,0.0,98,0.04,,OVC009,0.05,VWS V14.01,2014-01-11 06:32:00,
2014-01-11 01:37:00,41.4,40.9,30.09,WSW,246,0.0,0.0,98,0.06,,OVC009,0.07,VWS V14.01,2014-01-11 06:37:00,
2014-01-11 01:42:00,41.3,40.8,30.08,WSW,246,0.0,0.0,98,0.06,,RA,0.08,VWS V14.01,2014-01-11 06:42:00,
2014-01-11 01:47:00,41.3,40.8,30.08,West,277,1.0,0.0,98,0.06,,RA,0.08,VWS V14.01,2014-01-11 06:47:00,
2014-01-11 01:52:00,41.4,40.9,30.09,West,267,0.0,0.0,98,0.07,,RA,0.09,VWS V14.01,2014-01-11 06:52:00,
2014-01-11 01:57:00,41.3,40.8,30.09,SSW,207,0.0,0.0,98,0.07,,RA,0.09,VWS V14.01,2014-01-11 06:57:00,
2014-01-11 02:02:00,41.3,40.8,30.09,WNW,288,1.0,0.0,98,0.07,,-RA,0.09,VWS V14.01,2014-01-11 07:02:00,
2014-01-11 02:07:00,41.4,40.9,30.08,NNW,343,1.0,0.0,98,0.08,,-RA,0.10,VWS V14.01,2014-01-11 07:07:00,
2014-01-11 02:12:00,41.4,40.9,30.07,North,11,0.0,0.0,98,0.09,,-RA,0.11,VWS V14.01,2014-01-11 07:12:00,
2014-01-11 02:17:00,41.4,40.9,30.07,ENE,64,0.0,0.0,98,0.09,,-RA,0.12,VWS V14.01,2014-01-11 07:17:00,
2014-01-11 02:22:00,41.4,40.9,30.06,ENE,65,0.0,0.0,98,0.09,,RA,0.12,VWS V14.01,2014-01-11 07:22:00,
2014-01-11 02:27:00,41.4,40.9,30.05,ENE,65,0.0,0.0,98,0.10,,RA,0.13,VWS V14.01,2014-01-11 07:27:00,
2014-01-11 02:32:00,41.4,40.9,30.07,WNW,290,1.0,0.0,98,0.09,,RA,0.14,VWS V14.01,2014-01-11 07:32:00,
2014-01-11 02:37:00,41.3,40.8,30.07,SSE,147,0.0,0.0,98,0.09,,RA,0.15,VWS V14.01,2014-01-11 07:37:00,
2014-01-11 02:42:00,41.3,40.8,30.07,ENE,72,1.0,0.0,98,0.08,, +RA,0.15,VWS V14.01,2014-01-11 07:42:00,
2014-01-11 02:47:00,41.3,40.8,30.06,East,88,0.0,0.0,98,0.08,, +RA,0.16,VWS V14.01,2014-01-11 07:47:00,
2014-01-11 02:52:00,41.3,40.8,30.05,SE,124,1.0,0.0,98,0.07,, +RA,0.16,VWS V14.01,2014-01-11 07:52:00,
2014-01-11 02:57:00,41.3,40.8,30.05,SE,142,0.0,0.0,98,0.07,, +RA,0.16,VWS V14.01,2014-01-11 07:57:00,
2014-01-11 03:02:00,41.3,40.8,30.04,SE,136,1.0,0.0,98,0.07,,-RA,0.16,VWS V14.01,2014-01-11 08:02:00,
2014-01-11 03:07:00,41.3,40.8,30.04,SE,137,0.0,0.0,98,0.06,,-RA,0.16,VWS V14.01,2014-01-11 08:07:00,
2014-01-11 03:12:00,41.3,40.8,30.03,SE,136,0.0,0.0,98,0.07,,-RA,0.18,VWS V14.01,2014-01-11 08:12:00,
2014-01-11 03:17:00,41.4,40.9,30.02,East,89,1.0,0.0,98,0.06,,-RA,0.18,VWS V14.01,2014-01-11 08:17:00,
2014-01-11 03:22:00,41.4,40.9,30.02,East,95,0.0,0.0,98,0.06,,,0.18,VWS V14.01,2014-01-11 08:22:00,
2014-01-11 03:27:00,41.4,40.9,30.02,East,94,0.0,0.0,98,0.06,,,0.19,VWS V14.01,2014-01-11 08:27:00,
2014-01-11 03:32:00,41.5,41.0,30.03,WNW,297,0.0,0.0,98,0.05,,,0.19,VWS V14.01,2014-01-11 08:32:00,
2014-01-11 03:37:00,41.5,41.0,30.02,NW,324,1.0,0.0,98,0.04,,,0.19,VWS V14.01,2014-01-11 08:37:00,
2014-01-11 03:42:00,41.4,40.9,30.01,NW,316,2.0,0.0,98,0.05,,RA,0.20,VWS V14.01,2014-01-11 08:42:00,
2014-01-11 03:47:00,41.5,41.0,30.01,NW,316,0.0,0.0,98,0.04,,RA,0.20,VWS V14.01,2014-01-11 08:47:00,
2014-01-11 03:52:00,41.5,41.0,30.00,WNW,300,0.0,0.0,98,0.04,,RA,0.20,VWS V14.01,2014-01-11 08:52:00,
2014-01-11 03:57:00,41.4,40.9,30.00,WNW,300,0.0,0.0,98,0.04,,RA,0.20,VWS V14.01,2014-01-11 08:57:00,
2014-01-11 04:02:00,41.5,41.0,30.00,WNW,299,0.0,0.0,98,0.04,,OVC001,0.20,VWS V14.01,2014-01-11 09:02:00,
2014-01-11 04:07:00,41.4,40.9,30.01,WNW,299,0.0,0.0,98,0.05,,OVC001,0.21,VWS V14.01,2014-01-11 09:07:00,
2014-01-11 04:12:00,41.4,40.9,30.01,WNW,299,0.0,0.0,98,0.03,,OVC001,0.21,VWS V14.01,2014-01-11 09:12:00,
2014-01-11 04:17:00,41.4,40.9,30.00,WNW,300,0.0,0.0,98,0.03,,OVC001,0.21,VWS V14.01,2014-01-11 09:17:00,
2014-01-11 04:22:00,41.4,40.9,29.99,WNW,300,0.0,0.0,98,0.03,,-RA,0.21,VWS V14.01,2014-01-11 09:22:00,
2014-01-11 04:27:00,41.4,40.9,29.98,WNW,299,0.0,0.0,98,0.02,,-RA,0.21,VWS V14.01,2014-01-11 09:27:00,
2014-01-11 04:32:00,41.3,40.8,29.98,WNW,300,0.0,0.0,98,0.03,,-RA,0.22,VWS V14.01,2014-01-11 09:32:00,
2014-01-11 04:37:00,41.3,40.8,29.99,WNW,300,0.0,0.0,98,0.03,,-RA,0.22,VWS V14.01,2014-01-11 09:37:00,
2014-01-11 04:42:00,41.2,40.7,29.99,WNW,299,0.0,0.0,98,0.04,,-RA,0.23,VWS V14.01,2014-01-11 09:42:00,
2014-01-11 04:47:00,41.3,40.8,29.98,WNW,300,0.0,0.0,98,0.03,,-RA,0.23,VWS V14.01,2014-01-11 09:47:00,
2014-01-11 04:52:00,41.3,40.8,29.98,WNW,300,0.0,0.0,98,0.03,,-RA,0.23,VWS V14.01,2014-01-11 09:52:00,
2014-01-11 04:57:00,41.3,40.8,29.98,WNW,299,0.0,0.0,98,0.04,,-RA,0.24,VWS V14.01,2014-01-11 09:57:00,
2014-01-11 05:02:00,41.3,40.8,29.98,WNW,299,0.0,0.0,98,0.05,,-RA,0.25,VWS V14.01,2014-01-11 10:02:00,
2014-01-11 05:07:00,41.3,40.8,29.99,West,281,0.0,0.0,98,0.05,,-RA,0.26,VWS V14.01,2014-01-11 10:07:00,
2014-01-11 05:12:00,41.3,40.8,29.98,NNE,27,1.0,0.0,98,0.12,,-RA,0.33,VWS V14.01,2014-01-11 10:12:00,
2014-01-11 05:17:00,41.3,40.8,29.98,NNE,27,0.0,0.0,98,0.18,,-RA,0.39,VWS V14.01,2014-01-11 10:17:00,
2014-01-11 05:22:00,41.4,40.9,29.97,NNE,27,0.0,0.0,98,0.19,, +RA,0.40,VWS V14.01,2014-01-11 10:22:00,
2014-01-11 05:27:00,41.4,40.9,29.98,WNW,284,0.0,0.0,98,0.21,, +RA,0.42,VWS V14.01,2014-01-11 10:27:00,
2014-01-11 05:32:00,41.4,40.9,29.97,East,88,2.0,0.0,98,0.27,, +RA,0.49,VWS V14.01,2014-01-11 10:32:00,
2014-01-11 05:37:00,41.4,40.9,29.97,SSE,147,0.0,0.0,98,0.31,, +RA,0.53,VWS V14.01,2014-01-11 10:37:00,
2014-01-11 05:42:00,41.4,40.9,29.96,SE,139,1.0,0.0,98,0.33,, +RA,0.56,VWS V14.01,2014-01-11 10:42:00,
2014-01-11 05:47:00,41.4,40.9,29.94,East,96,0.0,0.0,98,0.35,, +RA,0.58,VWS V14.01,2014-01-11 10:47:00,
2014-01-11 05:52:00,41.4,40.9,29.94,East,95,0.0,0.0,98,0.36,, +RA,0.59,VWS V14.01,2014-01-11 10:52:00,
2014-01-11 05:57:00,41.5,41.0,29.94,ESE,110,0.0,0.0,98,0.35,, +RA,0.59,VWS V14.01,2014-01-11 10:57:00,
2014-01-11 06:02:00,41.5,41.0,29.94,ESE,110,0.0,0.0,98,0.35,,,0.60,VWS V14.01,2014-01-11 11:02:00,
2014-01-11 06:07:00,41.5,41.0,29.95,North,352,1.0,0.0,98,0.34,,,0.60,VWS V14.01,2014-01-11 11:07:00,
2014-01-11 06:12:00,41.5,41.0,29.95,ENE,63,0.0,0.0,98,0.30,,,0.61,VWS V14.01,2014-01-11 11:12:00,
2014-01-11 06:17:00,41.6,41.1,29.96,NNW,333,2.0,0.0,98,0.23,,,0.62,VWS V14.01,2014-01-11 11:17:00,
2014-01-11 06:22:00,41.5,41.0,29.95,WNW,283,0.0,0.0,98,0.23,,RA,0.63,VWS V14.01,2014-01-11 11:22:00,
2014-01-11 06:27:00,41.5,41.0,29.95,SSW,203,0.0,0.0,98,0.24,,RA,0.65,VWS V14.01,2014-01-11 11:27:00,
2014-01-11 06:32:00,41.6,41.1,29.93,SSE,151,0.0,0.0,98,0.19,,RA,0.68,VWS V14.01,2014-01-11 11:32:00,
2014-01-11 06:37:00,41.6,41.1,29.92,ESE,120,0.0,0.0,98,0.19,,RA,0.71,VWS V14.01,2014-01-11 11:37:00,
2014-01-11 06:42:00,41.5,41.0,29.91,North,11,0.0,0.0,98,0.17,,-RA,0.73,VWS V14.01,2014-01-11 11:42:00,
2014-01-11 06:47:00,41.5,41.0,29.91,NNE,27,0.0,0.0,98,0.17,,-RA,0.75,VWS V14.01,2014-01-11 11:47:00,
2014-01-11 06:52:00,41.6,41.1,29.91,NNE,27,0.0,0.0,98,0.17,,-RA,0.76,VWS V14.01,2014-01-11 11:52:00,
2014-01-11 06:57:00,41.6,41.1,29.90,SE,146,0.0,0.0,98,0.18,,-RA,0.77,VWS V14.01,2014-01-11 11:57:00,
2014-01-11 07:02:00,41.6,41.1,29.89,ESE,111,2.0,0.0,98,0.18,, +RA,0.78,VWS V14.01,2014-01-11 12:02:00,
2014-01-11 07:07:00,41.5,41.0,29.89,NNW,336,2.0,0.0,98,0.21,, +RA,0.81,VWS V14.01,2014-01-11 12:07:00,
2014-01-11 07:12:00,41.6,41.1,29.88,North,360,2.0,0.0,98,0.21,, +RA,0.82,VWS V14.01,2014-01-11 12:12:00,
2014-01-11 07:17:00,41.6,41.1,29.88,ENE,68,3.0,0.0,98,0.22,, +RA,0.84,VWS V14.01,2014-01-11 12:17:00,
2014-01-11 07:22:00,41.6,41.1,29.89,NW,312,0.0,0.0,98,0.21,,-RA,0.84,VWS V14.01,2014-01-11 12:22:00,
2014-01-11 07:27:00,41.6,41.1,29.89,NE,44,2.0,0.0,98,0.19,,-RA,0.84,VWS V14.01,2014-01-11 12:27:00,
2014-01-11 07:32:00,41.7,41.2,29.89,North,6,1.0,0.0,98,0.16,,-RA,0.84,VWS V14.01,2014-01-11 12:32:00,
2014-01-11 07:37:00,41.7,41.2,29.89,ENE,70,0.0,0.0,98,0.13,,-RA,0.84,VWS V14.01,2014-01-11 12:37:00,
2014-01-11 07:42:00,41.7,41.2,29.89,WSW,243,1.0,0.0,98,0.11,,,0.84,VWS V14.01,2014-01-11 12:42:00,
2014-01-11 07:47:00,41.6,41.1,29.88,SW,226,0.0,0.0,98,0.09,,,0.84,VWS V14.01,2014-01-11 12:47:00,
2014-01-11 07:52:00,41.6,41.1,29.88,SW,228,1.0,0.0,98,0.08,,,0.84,VWS V14.01,2014-01-11 12:52:00,
2014-01-11 07:57:00,41.5,41.0,29.87,SSE,167,0.0,0.0,98,0.07,,,0.84,VWS V14.01,2014-01-11 12:57:00,
2014-01-11 08:02:00,41.5,41.0,29.87,SE,136,1.0,0.0,98,0.07,,,0.85,VWS V14.01,2014-01-11 13:02:00,
2014-01-11 08:07:00,41.6,41.1,29.87,SE,136,0.0,0.0,98,0.05,,,0.85,VWS V14.01,2014-01-11 13:07:00,
2014-01-11 08:12:00,41.6,41.1,29.87,NNE,15,2.0,0.0,98,0.03,,,0.85,VWS V14.01,2014-01-11 13:12:00,
2014-01-11 08:17:00,41.6,41.1,29.87,North,11,0.0,0.0,98,0.01,,,0.85,VWS V14.01,2014-01-11 13:17:00,
2014-01-11 08:22:00,41.6,41.1,29.87,North,11,0.0,0.0,98,0.01,,-RA,0.85,VWS V14.01,2014-01-11 13:22:00,
2014-01-11 08:27:00,41.7,41.2,29.87,NNW,335,0.0,0.0,98,0.01,,-RA,0.85,VWS V14.01,2014-01-11 13:27:00,
2014-01-11 08:32:00,41.7,41.2,29.87,NW,307,0.0,0.0,98,0.01,,-RA,0.85,VWS V14.01,2014-01-11 13:32:00,
2014-01-11 08:37:00,41.7,41.2,29.88,West,277,0.0,0.0,98,0.01,,-RA,0.85,VWS V14.01,2014-01-11 13:37:00,
2014-01-11 08:42:00,41.7,41.2,29.87,West,278,0.0,0.0,98,0.02,,RA,0.86,VWS V14.01,2014-01-11 13:42:00,
2014-01-11 08:47:00,41.7,41.2,29.87,WSW,250,0.0,0.0,98,0.02,,RA,0.86,VWS V14.01,2014-01-11 13:47:00,
2014-01-11 08:52:00,41.7,41.2,29.87,WSW,250,0.0,0.0,98,0.02,,RA,0.86,VWS V14.01,2014-01-11 13:52:00,
2014-01-11 08:57:00,41.8,41.3,29.87,WSW,250,0.0,0.0,98,0.02,,RA,0.86,VWS V14.01,2014-01-11 13:57:00,
2014-01-11 09:02:00,41.8,41.3,29.86,North,11,1.0,0.0,98,0.02,,RA,0.87,VWS V14.01,2014-01-11 14:02:00,
2014-01-11 09:07:00,41.9,41.4,29.86,WNW,293,0.0,0.0,98,0.02,,RA,0.87,VWS V14.01,2014-01-11 14:07:00,
2014-01-11 09:12:00,41.9,41.4,29.86,West,262,1.0,0.0,98,0.02,,RA,0.87,VWS V14.01,2014-01-11 14:12:00,
2014-01-11 09:17:00,41.9,41.4,29.86,WNW,290,0.0,0.0,98,0.03,,RA,0.88,VWS V14.01,2014-01-11 14:17:00,
2014-01-11 09:22:00,41.9,41.4,29.86,NNE,15,1.0,0.0,98,0.03,,,0.88,VWS V14.01,2014-01-11 14:22:00,
2014-01-11 09:27:00,41.9,41.4,29.86,West,275,0.0,0.0,98,0.03,,,0.88,VWS V14.01,2014-01-11 14:27:00,
2014-01-11 09:32:00,42.0,41.5,29.85,WNW,287,1.0,0.0,98,0.04,,,0.89,VWS V14.01,2014-01-11 14:32:00,
2014-01-11 09:37:00,42.0,41.5,29.85,WSW,253,0.0,0.0,98,0.04,,,0.89,VWS V14.01,2014-01-11 14:37:00,
2014-01-11 09:42:00,42.0,41.5,29.84,NNW,338,0.0,0.0,98,0.03,,-RA,0.89,VWS V14.01,2014-01-11 14:42:00,
2014-01-11 09:47:00,42.0,41.5,29.84,NNE,30,0.0,0.0,98,0.03,,-RA,0.89,VWS V14.01,2014-01-11 14:47:00,
2014-01-11 09:52:00,42.1,41.6,29.84,NNE,30,0.0,0.0,98,0.03,,-RA,0.89,VWS V14.01,2014-01-11 14:52:00,
2014-01-11 09:57:00,42.1,41.6,29.84,NE,54,0.0,0.0,98,0.03,,-RA,0.89,VWS V14.01,2014-01-11 14:57:00,
2014-01-11 10:02:00,42.2,41.7,29.84,East,99,0.0,0.0,98,0.02,,,0.89,VWS V14.01,2014-01-11 15:02:00,
2014-01-11 10:07:00,42.2,41.7,29.83,ENE,75,0.0,0.0,98,0.03,,,0.90,VWS V14.01,2014-01-11 15:07:00,
2014-01-11 10:12:00,42.2,41.7,29.83,NNE,21,1.0,0.0,98,0.03,,,0.90,VWS V14.01,2014-01-11 15:12:00,
2014-01-11 10:17:00,42.2,41.7,29.83,NNE,20,2.0,0.0,98,0.02,,,0.90,VWS V14.01,2014-01-11 15:17:00,
2014-01-11 10:22:00,42.2,41.7,29.83,ESE,103,0.0,0.0,98,0.02,,-RA,0.90,VWS V14.01,2014-01-11 15:22:00,
2014-01-11 10:27:00,42.2,41.7,29.84,North,355,4.0,0.0,98,0.02,,-RA,0.90,VWS V14.01,2014-01-11 15:27:00,
2014-01-11 10:32:00,42.2,41.7,29.88,WNW,302,1.0,0.0,98,0.06,,-RA,0.95,VWS V14.01,2014-01-11 15:32:00,
2014-01-11 10:37:00,42.4,41.9,29.85,ESE,123,3.0,0.0,98,0.21,,-RA,1.10,VWS V14.01,2014-01-11 15:37:00,
2014-01-11 10:42:00,42.4,41.9,29.85,WSW,252,0.0,0.0,98,0.24,,RA,1.13,VWS V14.01,2014-01-11 15:42:00,
2014-01-11 10:47:00,42.5,42.0,29.84,SW,226,1.0,0.0,98,0.25,,RA,1.14,VWS V14.01,2014-01-11 15:47:00,
2014-01-11 10:52:00,42.7,42.2,29.83,SW,222,6.0,0.0,98,0.26,,RA,1.15,VWS V14.01,2014-01-11 15:52:00,
2014-01-11 10:57:00,42.7,42.2,29.85,WSW,240,3.0,0.0,98,0.26,,RA,1.15,VWS V14.01,2014-01-11 15:57:00,
2014-01-11 11:02:00,42.8,42.3,29.85,SSW,204,1.0,0.0,98,0.27,, +RA,1.16,VWS V14.01,2014-01-11 16:02:00,
2014-01-11 11:07:00,43.0,42.5,29.81,SSE,149,2.0,0.0,98,0.27,, +RA,1.17,VWS V14.01,2014-01-11 16:07:00,
2014-01-11 11:12:00,43.1,42.6,29.79,SE,146,0.0,0.0,98,0.27,, +RA,1.17,VWS V14.01,2014-01-11 16:12:00,
2014-01-11 11:17:00,43.3,42.8,29.81,SE,142,0.0,0.0,98,0.27,, +RA,1.17,VWS V14.01,2014-01-11 16:17:00,
2014-01-11 11:22:00,43.5,43.0,29.81,SSW,203,0.0,0.0,98,0.27,,-RA,1.17,VWS V14.01,2014-01-11 16:22:00,
2014-01-11 11:27:00,43.8,43.3,29.82,SSW,201,0.0,0.0,98,0.28,,-RA,1.18,VWS V14.01,2014-01-11 16:27:00,
2014-01-11 11:32:00,44.5,44.0,29.82,South,189,3.0,0.0,98,0.26,,-RA,1.19,VWS V14.01,2014-01-11 16:32:00,
2014-01-11 11:37:00,44.9,44.4,29.82,SE,128,1.0,0.0,98,0.11,,-RA,1.19,VWS V14.01,2014-01-11 16:37:00,
2014-01-11 11:42:00,44.7,44.2,29.81,SE,131,1.0,0.0,98,0.07,,RA,1.20,VWS V14.01,2014-01-11 16:42:00,
2014-01-11 11:47:00,44.9,44.4,29.80,ESE,120,1.0,0.0,98,0.07,,RA,1.21,VWS V14.01,2014-01-11 16:47:00,
2014-01-11 11:52:00,45.1,44.6,29.79,SE,134,2.0,0.0,98,0.07,,RA,1.22,VWS V14.01,2014-01-11 16:52:00,
2014-01-11 11:57:00,45.4,45.1,29.80,South,169,1.0,0.0,99,0.08,,RA,1.23,VWS V14.01,2014-01-11 16:57:00,
2014-01-11 12:02:00,45.6,45.3,29.79,SE,146,0.0,0.0,99,0.10,,RA,1.25,VWS V14.01,2014-01-11 17:02:00,
2014-01-11 12:07:00,45.9,45.6,29.78,East,96,1.0,0.0,99,0.09,,RA,1.26,VWS V14.01,2014-01-11 17:07:00,
2014-01-11 12:12:00,46.0,45.7,29.77,ESE,123,2.0,0.0,99,0.11,,RA,1.28,VWS V14.01,2014-01-11 17:12:00,
2014-01-11 12:17:00,46.3,46.0,29.77,NNW,334,1.0,0.0,99,0.12,,RA,1.29,VWS V14.01,2014-01-11 17:17:00,
2014-01-11 12:22:00,47.0,46.7,29.78,WNW,286,1.0,0.0,99,0.13,, +RA,1.30,VWS V14.01,2014-01-11 17:22:00,
2014-01-11 12:27:00,47.1,46.8,29.78,SSW,211,1.0,0.0,99,0.14,, +RA,1.32,VWS V14.01,2014-01-11 17:27:00,
2014-01-11 12:32:00,48.5,48.2,29.77,WSW,246,0.0,0.0,99,0.14,, +RA,1.33,VWS V14.01,2014-01-11 17:32:00,
2014-01-11 12:37:00,48.8,48.5,29.77,West,276,0.0,0.0,99,0.16,, +RA,1.35,VWS V14.01,2014-01-11 17:37:00,
2014-01-11 12:42:00,48.8,48.5,29.77,West,277,0.0,0.0,99,0.18,, +RA,1.38,VWS V14.01,2014-01-11 17:42:00,
2014-01-11 12:47:00,48.8,48.5,29.77,West,278,1.0,0.0,99,0.20,, +RA,1.41,VWS V14.01,2014-01-11 17:47:00,
2014-01-11 12:52:00,48.7,48.4,29.77,North,355,0.0,0.0,99,0.20,, +RA,1.42,VWS V14.01,2014-01-11 17:52:00,
2014-01-11 12:57:00,48.7,48.4,29.75,SSE,160,3.0,0.0,99,0.21,, +RA,1.44,VWS V14.01,2014-01-11 17:57:00,
2014-01-11 13:02:00,48.9,48.6,29.74,SE,136,2.0,0.0,99,0.20,, +RA,1.44,VWS V14.01,2014-01-11 18:02:00,
2014-01-11 13:07:00,48.4,48.1,29.73,ESE,105,1.0,0.0,99,0.18,, +RA,1.44,VWS V14.01,2014-01-11 18:07:00,
2014-01-11 13:12:00,48.9,48.6,29.72,SE,138,2.0,0.0,99,0.17,, +RA,1.44,VWS V14.01,2014-01-11 18:12:00,
2014-01-11 13:17:00,48.9,48.6,29.70,SE,146,2.0,0.0,99,0.17,, +RA,1.45,VWS V14.01,2014-01-11 18:17:00,
2014-01-11 13:22:00,49.9,49.6,29.72,WSW,249,3.0,0.0,99,0.15,,-RA,1.45,VWS V14.01,2014-01-11 18:22:00,
2014-01-11 13:27:00,50.4,50.1,29.72,SW,226,2.0,0.0,99,0.14,,-RA,1.45,VWS V14.01,2014-01-11 18:27:00,
2014-01-11 13:32:00,50.7,50.4,29.72,ESE,122,0.0,0.0,99,0.12,,-RA,1.45,VWS V14.01,2014-01-11 18:32:00,
2014-01-11 13:37:00,50.8,50.5,29.72,WSW,243,0.0,0.0,99,0.10,,-RA,1.45,VWS V14.01,2014-01-11 18:37:00,
2014-01-11 13:42:00,50.9,50.6,29.73,NW,316,2.0,0.0,99,0.08,,-RA,1.45,VWS V14.01,2014-01-11 18:42:00,
2014-01-11 13:47:00,49.9,49.6,29.73,NNW,335,5.0,0.0,99,0.05,,-RA,1.45,VWS V14.01,2014-01-11 18:47:00,
2014-01-11 13:52:00,48.9,48.6,29.72,SSW,203,1.0,0.0,99,0.03,,-RA,1.45,VWS V14.01,2014-01-11 18:52:00,
2014-01-11 13:57:00,48.6,48.1,29.71,NNW,345,4.0,0.0,98,0.03,,-RA,1.46,VWS V14.01,2014-01-11 18:57:00,
2014-01-11 14:02:00,48.3,47.8,29.72,ESE,117,3.0,0.0,98,0.02,,-RA,1.46,VWS V14.01,2014-01-11 19:02:00,
2014-01-11 14:07:00,48.1,47.6,29.71,SSE,160,1.0,0.0,98,0.02,,-RA,1.46,VWS V14.01,2014-01-11 19:07:00,
2014-01-11 14:12:00,48.1,47.6,29.69,East,86,7.0,0.0,98,0.02,,-RA,1.46,VWS V14.01,2014-01-11 19:12:00,
2014-01-11 14:17:00,48.5,48.0,29.65,SE,146,6.0,0.0,98,0.02,,-RA,1.47,VWS V14.01,2014-01-11 19:17:00,
2014-01-11 14:22:00,49.9,49.4,29.67,SSW,201,5.0,0.0,98,0.02,,-RA,1.47,VWS V14.01,2014-01-11 19:22:00,
2014-01-11 14:27:00,50.7,50.4,29.69,West,259,4.0,0.0,99,0.02,,-RA,1.47,VWS V14.01,2014-01-11 19:27:00,
2014-01-11 14:32:00,51.2,50.7,29.69,WSW,256,1.0,0.0,98,0.02,,-RA,1.47,VWS V14.01,2014-01-11 19:32:00,
2014-01-11 14:37:00,51.0,50.2,29.71,WSW,252,0.0,0.0,97,0.02,,-RA,1.47,VWS V14.01,2014-01-11 19:37:00,
2014-01-11 14:42:00,49.9,48.5,29.71,ENE,72,1.0,0.0,95,0.02,,OVC070,1.47,VWS V14.01,2014-01-11 19:42:00,
2014-01-11 14:47:00,49.1,48.0,29.71,North,357,2.0,0.0,96,0.02,,OVC070,1.47,VWS V14.01,2014-01-11 19:47:00,
2014-01-11 14:52:00,48.5,47.4,29.71,North,358,3.0,0.0,96,0.02,,OVC070,1.47,VWS V14.01,2014-01-11 19:52:00,
2014-01-11 14:57:00,48.0,46.9,29.70,East,98,2.0,0.0,96,0.01,,OVC070,1.47,VWS V14.01,2014-01-11 19:57:00,
2014-01-11 15:02:00,47.6,46.5,29.69,East,97,2.0,0.0,96,0.01,,,1.47,VWS V14.01,2014-01-11 20:02:00,
2014-01-11 15:07:00,47.6,46.8,29.69,East,88,2.0,0.0,97,0.01,,,1.47,VWS V14.01,2014-01-11 20:07:00,
2014-01-11 15:08:00,47.7,46.9,29.69,East,87,1.0,0.0,97,0.01,,,1.47,VWS V14.01,2014-01-11 20:08:00,
2014-01-11 15:13:00,47.9,47.1,29.68,East,90,4.0,0.0,97,0.01,,,1.47,VWS V14.01,2014-01-11 20:13:00,
2014-01-11 15:18:00,47.9,47.1,29.68,ESE,104,1.0,0.0,97,0.00,,,1.47,VWS V14.01,2014-01-11 20:18:00,
2014-01-11 15:23:00,48.0,47.2,29.68,ESE,112,0.0,0.0,97,0.00,,,1.47,VWS V14.01,2014-01-11 20:23:00,
2014-01-11 15:28:00,48.1,47.6,29.68,East,93,1.0,0.0,98,0.00,,,1.47,VWS V14.01,2014-01-11 20:28:00,
2014-01-11 15:33:00,48.3,47.8,29.67,NE,53,2.0,0.0,98,0.00,,,1.47,VWS V14.01,2014-01-11 20:33:00,
2014-01-11 15:38:00,48.7,48.2,29.67,ENE,68,1.0,0.0,98,0.00,,,1.47,VWS V14.01,2014-01-11 20:38:00,
2014-01-11 15:43:00,49.3,48.8,29.67,NNE,30,2.0,0.0,98,0.00,,BKN017,1.47,VWS V14.01,2014-01-11 20:43:00,
2014-01-11 15:48:00,49.7,49.2,29.67,ENE,57,4.0,0.0,98,0.00,,BKN017,1.47,VWS V14.01,2014-01-11 20:48:00,
2014-01-11 15:53:00,50.1,49.6,29.67,NE,41,0.0,0.0,98,0.00,,BKN017,1.47,VWS V14.01,2014-01-11 20:53:00,
2014-01-11 15:58:00,50.2,49.7,29.66,ENE,73,1.0,0.0,98,0.00,,BKN017,1.47,VWS V14.01,2014-01-11 20:58:00,
2014-01-11 16:03:00,50.2,49.4,29.66,ENE,78,0.0,0.0,97,0.00,,OVC003,1.47,VWS V14.01,2014-01-11 21:03:00,
2014-01-11 16:08:00,50.4,49.6,29.66,NE,53,0.0,0.0,97,0.00,,OVC003,1.47,VWS V14.01,2014-01-11 21:08:00,
2014-01-11 16:13:00,50.7,49.9,29.66,NNE,30,0.0,0.0,97,0.00,,OVC003,1.47,VWS V14.01,2014-01-11 21:13:00,
2014-01-11 16:18:00,50.9,50.1,29.66,ESE,110,0.0,0.0,97,0.00,,OVC003,1.47,VWS V14.01,2014-01-11 21:18:00,
2014-01-11 16:23:00,51.2,50.4,29.65,NE,34,0.0,0.0,97,0.00,,OVC003,1.47,VWS V14.01,2014-01-11 21:23:00,
2014-01-11 16:28:00,51.4,50.6,29.66,NNW,339,0.0,0.0,97,0.00,,OVC003,1.47,VWS V14.01,2014-01-11 21:28:00,
2014-01-11 16:33:00,51.4,50.6,29.65,North,349,2.0,0.0,97,0.00,,OVC003,1.47,VWS V14.01,2014-01-11 21:33:00,
2014-01-11 16:34:00,51.4,50.6,29.65,NW,326,2.0,0.0,97,0.00,,OVC003,1.47,VWS V14.01,2014-01-11 21:34:00,
2014-01-11 16:39:00,51.4,50.6,29.65,NE,34,3.0,0.0,97,0.00,,OVC005,1.47,VWS V14.01,2014-01-11 21:39:00,
2014-01-11 16:44:00,51.3,50.5,29.65,North,357,1.0,0.0,97,0.00,,OVC005,1.47,VWS V14.01,2014-01-11 21:44:00,
2014-01-11 16:49:00,51.2,50.4,29.65,North,357,4.0,0.0,97,0.00,,OVC005,1.47,VWS V14.01,2014-01-11 21:49:00,
2014-01-11 16:54:00,51.1,50.3,29.65,NE,50,2.0,0.0,97,0.00,,OVC005,1.47,VWS V14.01,2014-01-11 21:54:00,
2014-01-11 16:59:00,51.0,50.2,29.65,ENE,74,0.0,0.0,97,0.00,,OVC005,1.47,VWS V14.01,2014-01-11 21:59:00,
2014-01-11 17:04:00,51.0,50.2,29.64,NNW,338,2.0,0.0,97,0.00,,OVC005,1.47,VWS V14.01,2014-01-11 22:04:00,
2014-01-11 17:09:00,50.9,50.1,29.64,NNW,340,0.0,0.0,97,0.00,,OVC005,1.47,VWS V14.01,2014-01-11 22:09:00,
2014-01-11 17:14:00,50.8,50.0,29.64,North,352,2.0,0.0,97,0.00,,OVC005,1.47,VWS V14.01,2014-01-11 22:14:00,
2014-01-11 17:19:00,50.4,49.6,29.64,NE,38,4.0,0.0,97,0.00,,OVC005,1.47,VWS V14.01,2014-01-11 22:19:00,
2014-01-11 17:24:00,50.1,49.3,29.64,NE,36,2.0,0.0,97,0.00,,OVC005,1.47,VWS V14.01,2014-01-11 22:24:00,
2014-01-11 17:29:00,49.7,48.9,29.64,ENE,68,0.0,0.0,97,0.00,,OVC005,1.47,VWS V14.01,2014-01-11 22:29:00,
2014-01-11 17:34:00,49.3,48.5,29.64,NNE,15,4.0,0.0,97,0.00,,OVC005,1.47,VWS V14.01,2014-01-11 22:34:00,
2014-01-11 17:39:00,49.1,48.3,29.64,NE,34,0.0,0.0,97,0.00,,OVC005,1.47,VWS V14.01,2014-01-11 22:39:00,
2014-01-11 17:44:00,48.7,47.9,29.64,NNE,25,0.0,0.0,97,0.00,,OVC005,1.47,VWS V14.01,2014-01-11 22:44:00,
2014-01-11 17:49:00,48.6,47.8,29.64,NE,42,1.0,0.0,97,0.00,,OVC005,1.47,VWS V14.01,2014-01-11 22:49:00,
2014-01-11 17:54:00,48.3,47.5,29.64,NE,56,1.0,0.0,97,0.00,,OVC005,1.47,VWS V14.01,2014-01-11 22:54:00,
2014-01-11 17:59:00,48.2,47.4,29.65,WNW,297,0.0,0.0,97,0.00,,OVC007,1.47,VWS V14.01,2014-01-11 22:59:00,
2014-01-11 18:04:00,48.0,47.2,29.65,North,358,3.0,0.0,97,0.00,,OVC007,1.47,VWS V14.01,2014-01-11 23:04:00,
2014-01-11 18:09:00,48.0,47.5,29.66,ENE,58,3.0,0.0,98,0.00,,OVC007,1.47,VWS V14.01,2014-01-11 23:09:00,
2014-01-11 18:14:00,47.8,47.3,29.66,ESE,119,0.0,0.0,98,0.00,,OVC007,1.47,VWS V14.01,2014-01-11 23:14:00,
2014-01-11 18:19:00,47.9,47.4,29.66,ESE,102,0.0,0.0,98,0.00,,OVC007,1.47,VWS V14.01,2014-01-11 23:19:00,
2014-01-11 18:24:00,47.8,47.3,29.66,East,94,1.0,0.0,98,0.00,,OVC007,1.47,VWS V14.01,2014-01-11 23:24:00,
2014-01-11 18:29:00,47.8,47.3,29.67,East,81,1.0,0.0,98,0.00,,OVC007,1.47,VWS V14.01,2014-01-11 23:29:00,
2014-01-11 18:34:00,47.6,47.1,29.67,West,281,1.0,0.0,98,0.00,,OVC007,1.47,VWS V14.01,2014-01-11 23:34:00,
2014-01-11 18:39:00,47.4,46.9,29.67,SSE,153,0.0,0.0,98,0.00,,OVC009,1.47,VWS V14.01,2014-01-11 23:39:00,
2014-01-11 18:44:00,47.5,47.0,29.67,SE,146,1.0,0.0,98,0.00,,OVC009,1.47,VWS V14.01,2014-01-11 23:44:00,
2014-01-11 18:49:00,47.6,47.1,29.68,South,170,0.0,0.0,98,0.00,,OVC009,1.47,VWS V14.01,2014-01-11 23:49:00,
2014-01-11 18:54:00,47.2,46.7,29.68,South,170,0.0,0.0,98,0.00,,OVC009,1.47,VWS V14.01,2014-01-11 23:54:00,
2014-01-11 18:59:00,47.0,46.5,29.68,South,169,0.0,0.0,98,0.00,,OVC060,1.47,VWS V14.01,2014-01-11 23:59:00,
2014-01-11 19:04:00,47.1,46.6,29.68,SSE,165,0.0,0.0,98,0.00,,OVC060,1.47,VWS V14.01,2014-01-12 00:04:00,
2014-01-11 19:09:00,47.4,46.9,29.69,SSE,165,0.0,0.0,98,0.00,,OVC060,1.47,VWS V14.01,2014-01-12 00:09:00,
2014-01-11 19:14:00,47.6,47.1,29.69,SSE,165,0.0,0.0,98,0.00,,OVC060,1.47,VWS V14.01,2014-01-12 00:14:00,
2014-01-11 19:19:00,47.5,47.0,29.70,NW,316,0.0,0.0,98,0.00,,OVC060,1.47,VWS V14.01,2014-01-12 00:19:00,
2014-01-11 19:24:00,47.6,47.1,29.70,NW,316,0.0,0.0,98,0.00,,OVC060,1.47,VWS V14.01,2014-01-12 00:24:00,
2014-01-11 19:29:00,47.4,46.9,29.70,NW,316,0.0,0.0,98,0.00,,OVC060,1.47,VWS V14.01,2014-01-12 00:29:00,
2014-01-11 19:34:00,47.0,46.5,29.70,WSW,255,0.0,0.0,98,0.00,,OVC060,1.47,VWS V14.01,2014-01-12 00:34:00,
2014-01-11 19:39:00,47.3,46.8,29.70,ESE,110,0.0,0.0,98,0.00,,BKN075,1.47,VWS V14.01,2014-01-12 00:39:00,
2014-01-11 19:44:00,47.0,46.5,29.71,SSW,203,0.0,0.0,98,0.00,,BKN075,1.47,VWS V14.01,2014-01-12 00:44:00,
2014-01-11 19:49:00,46.7,46.2,29.71,SSW,203,0.0,0.0,98,0.00,,BKN075,1.47,VWS V14.01,2014-01-12 00:49:00,
2014-01-11 19:54:00,46.5,46.0,29.71,SSW,203,0.0,0.0,98,0.00,,BKN075,1.47,VWS V14.01,2014-01-12 00:54:00,
2014-01-11 19:59:00,46.6,46.1,29.72,SSW,203,0.0,0.0,98,0.00,,BKN100,1.47,VWS V14.01,2014-01-12 00:59:00,
2014-01-11 20:04:00,46.4,45.9,29.72,SSW,203,0.0,0.0,98,0.00,,BKN100,1.47,VWS V14.01,2014-01-12 01:04:00,
2014-01-11 20:09:00,46.8,46.3,29.72,SW,229,0.0,0.0,98,0.00,,BKN100,1.47,VWS V14.01,2014-01-12 01:09:00,
2014-01-11 20:14:00,46.1,45.6,29.73,SSW,211,0.0,0.0,98,0.00,,BKN100,1.47,VWS V14.01,2014-01-12 01:14:00,
2014-01-11 20:19:00,46.0,45.5,29.73,SSW,211,0.0,0.0,98,0.00,,BKN100,1.47,VWS V14.01,2014-01-12 01:19:00,
2014-01-11 20:24:00,46.1,45.6,29.74,SSW,211,0.0,0.0,98,0.00,,BKN100,1.47,VWS V14.01,2014-01-12 01:24:00,
2014-01-11 20:29:00,46.2,45.7,29.74,SSW,211,0.0,0.0,98,0.00,,BKN100,1.47,VWS V14.01,2014-01-12 01:29:00,
2014-01-11 20:34:00,46.3,45.8,29.75,SSW,211,0.0,0.0,98,0.00,,BKN100,1.47,VWS V14.01,2014-01-12 01:34:00,
2014-01-11 20:39:00,46.5,46.0,29.74,WSW,252,0.0,0.0,98,0.00,,SCT095,1.47,VWS V14.01,2014-01-12 01:39:00,
2014-01-11 20:44:00,46.9,46.4,29.74,WNW,297,1.0,0.0,98,0.00,,SCT095,1.47,VWS V14.01,2014-01-12 01:44:00,
2014-01-11 20:49:00,47.1,46.8,29.75,WNW,294,0.0,0.0,99,0.00,,SCT095,1.47,VWS V14.01,2014-01-12 01:49:00,
2014-01-11 20:54:00,46.9,46.6,29.74,NW,322,2.0,0.0,99,0.00,,SCT095,1.47,VWS V14.01,2014-01-12 01:54:00,
2014-01-11 20:59:00,47.0,46.7,29.75,NW,316,2.0,0.0,99,0.00,,SCT095,1.47,VWS V14.01,2014-01-12 01:59:00,
2014-01-11 21:04:00,47.5,47.2,29.75,West,278,0.0,0.0,99,0.00,,SCT095,1.47,VWS V14.01,2014-01-12 02:04:00,
2014-01-11 21:09:00,47.2,46.9,29.76,WNW,293,1.0,0.0,99,0.00,,SCT095,1.47,VWS V14.01,2014-01-12 02:09:00,
2014-01-11 21:14:00,47.2,46.9,29.75,SW,229,1.0,0.0,99,0.00,,SCT095,1.47,VWS V14.01,2014-01-12 02:14:00,
2014-01-11 21:19:00,47.1,46.6,29.76,WNW,289,2.0,0.0,98,0.00,,SCT095,1.47,VWS V14.01,2014-01-12 02:19:00,
2014-01-11 21:24:00,47.3,45.9,29.76,NW,308,3.0,0.0,95,0.00,,SCT095,1.47,VWS V14.01,2014-01-12 02:24:00,
2014-01-11 21:29:00,47.6,44.2,29.77,NW,323,2.0,0.0,88,0.00,,SCT095,1.47,VWS V14.01,2014-01-12 02:29:00,
2014-01-11 21:34:00,47.5,43.2,29.77,WNW,294,2.0,0.0,85,0.00,,SCT095,1.47,VWS V14.01,2014-01-12 02:34:00,
2014-01-11 21:39:00,47.4,42.2,29.76,WNW,282,1.0,0.0,82,0.00,,BKN095,1.47,VWS V14.01,2014-01-12 02:39:00,
2014-01-11 21:44:00,47.1,41.9,29.76,NW,315,6.0,0.0,82,0.00,,BKN095,1.47,VWS V14.01,2014-01-12 02:44:00,
2014-01-11 21:49:00,47.0,40.8,29.77,SW,224,3.0,0.0,79,0.00,,BKN095,1.47,VWS V14.01,2014-01-12 02:49:00,
2014-01-11 21:54:00,46.4,40.2,29.77,West,276,3.0,0.0,79,0.00,,BKN095,1.47,VWS V14.01,2014-01-12 02:54:00,
2014-01-11 21:59:00,46.5,40.0,29.77,WNW,288,1.0,0.0,78,0.00,,SCT095,1.47,VWS V14.01,2014-01-12 02:59:00,
2014-01-11 22:04:00,46.4,38.6,29.77,WNW,302,6.0,0.0,74,0.00,,SCT095,1.47,VWS V14.01,2014-01-12 03:04:00,
2014-01-11 22:09:00,46.9,39.4,29.77,WNW,285,3.0,0.0,75,0.00,,SCT095,1.47,VWS V14.01,2014-01-12 03:09:00,
2014-01-11 22:14:00,47.3,39.1,29.78,WNW,286,3.0,0.0,73,0.00,,SCT095,1.47,VWS V14.01,2014-01-12 03:14:00,
2014-01-11 22:19:00,47.2,39.0,29.79,NW,316,4.0,0.0,73,0.00,,CLR,1.47,VWS V14.01,2014-01-12 03:19:00,
2014-01-11 22:24:00,46.9,39.1,29.79,WNW,300,1.0,0.0,74,0.00,,CLR,1.47,VWS V14.01,2014-01-12 03:24:00,
2014-01-11 22:29:00,46.5,38.7,29.79,NW,305,1.0,0.0,74,0.00,,CLR,1.47,VWS V14.01,2014-01-12 03:29:00,
2014-01-11 22:34:00,46.0,38.2,29.79,NW,315,2.0,0.0,74,0.00,,CLR,1.47,VWS V14.01,2014-01-12 03:34:00,
2014-01-11 22:39:00,46.0,38.2,29.80,WNW,299,3.0,0.0,74,0.00,,CLR,1.47,VWS V14.01,2014-01-12 03:39:00,
2014-01-11 22:44:00,46.0,37.8,29.81,WNW,293,2.0,0.0,73,0.00,,CLR,1.47,VWS V14.01,2014-01-12 03:44:00,
2014-01-11 22:49:00,45.9,37.8,29.81,NNW,331,7.0,0.0,73,0.00,,CLR,1.47,VWS V14.01,2014-01-12 03:49:00,
2014-01-11 22:54:00,45.9,37.8,29.81,NW,319,3.0,0.0,73,0.00,,CLR,1.47,VWS V14.01,2014-01-12 03:54:00,
2014-01-11 22:59:00,46.0,37.8,29.81,NW,311,4.0,0.0,73,0.00,,CLR,1.47,VWS V14.01,2014-01-12 03:59:00,
2014-01-11 23:04:00,46.6,37.7,29.81,NW,304,4.0,0.0,71,0.00,,CLR,1.47,VWS V14.01,2014-01-12 04:04:00,
2014-01-11 23:09:00,46.7,37.5,29.81,NW,312,4.0,0.0,70,0.00,,CLR,1.47,VWS V14.01,2014-01-12 04:09:00,
2014-01-11 23:14:00,46.3,37.8,29.81,WNW,297,6.0,0.0,72,0.00,,CLR,1.47,VWS V14.01,2014-01-12 04:14:00,
2014-01-11 23:19:00,46.6,37.3,29.81,NW,319,5.0,0.0,70,0.00,,CLR,1.47,VWS V14.01,2014-01-12 04:19:00,
2014-01-11 23:24:00,46.5,36.9,29.81,West,273,8.0,0.0,69,0.00,,CLR,1.47,VWS V14.01,2014-01-12 04:24:00,
2014-01-11 23:29:00,46.9,36.2,29.82,NNW,328,5.0,0.0,66,0.00,,CLR,1.47,VWS V14.01,2014-01-12 04:29:00,
2014-01-11 23:34:00,47.3,36.9,29.82,NW,306,4.0,0.0,67,0.00,,CLR,1.47,VWS V14.01,2014-01-12 04:34:00,
2014-01-11 23:39:00,47.3,35.8,29.82,WNW,290,10.0,0.0,64,0.00,,CLR,1.47,VWS V14.01,2014-01-12 04:39:00,
2014-01-11 23:44:00,47.3,36.2,29.83,WNW,291,9.0,0.0,65,0.00,,CLR,1.47,VWS V14.01,2014-01-12 04:44:00,
2014-01-11 23:49:00,46.6,36.2,29.83,NW,305,4.0,0.0,67,0.00,,CLR,1.47,VWS V14.01,2014-01-12 04:49:00,
2014-01-11 23:54:00,46.6,35.5,29.83,NW,308,5.0,0.0,65,0.00,,CLR,1.47,VWS V14.01,2014-01-12 04:54:00,
2014-01-11 23:59:00,46.7,34.8,29.83,WNW,299,7.0,0.0,63,0.00,,CLR,1.47,VWS V14.01,2014-01-12 04:59:00,